sat.trackr.live / text

‹ back to catalog

STARLINK-5160

NORAD 54080 · 2022-136AF

PAYLOAD ACTIVE UNKNOWN

§ Identity

Operator
Country
US
Launch date
2022-10-20
Launch site
AFETR
Launch vehicle
Mass (kg)
RCS (m²)

Purposes: comms

External: N2YO · Heavens-Above · Gunter

§ Orbital elements

Epoch: 2026-05-25T04:00:03.998880Z

Period
91.21 min
Inclination
53.2165°
Eccentricity
0.0002040
Mean motion
15.78782061 rev/d
Perigee alt
332.5 km
Apogee alt
335.3 km
Semi-major
6,712.0 km
B*
6.3674e-3
RAAN
343.3392°
Arg perigee
90.2498°
Mean anomaly
338.0787°
Rev number
591

§ Raw data

STARLINK-51601 54080U 22136AF  26145.16671295  .01272413  00000+0  63674-2 0  99932 54080  53.2165 343.3392 0002040  90.2498 338.0787 15.78782061  5912

JSON: /api/v1/satellites/54080 · /tle

For live sub-satellite position, see the globe view (requires WebGL).

§ Visibility from observer

Set your observer location to see the next 7 days of passes ≥ 10°. The values pass through the URL so the page stays shareable.

No JS? Fill the form by hand. The geolocation button needs JavaScript.